FW8483 Weather Reports


Display with metric or nautical units.
time (UTC)temp
F
wind
direction
speed
MPH
gust
MPH
rain 1hr
in
rain 24hr
in
rain mn
in
humidity
%
barometer
mb
20260502234514 69 76 3.0 4.0 0.00 2.73 1.02 59 1013.0
20260502234005 69 352 2.0 10.0 0.00 2.73 1.02 58 1012.9
20260502233505 70 340 1.0 10.0 0.00 2.73 1.02 57 1012.7
20260502233020 70 315 4.0 10.0 0.00 2.73 1.02 56 1012.6
20260502232507 70 330 3.0 10.0 0.00 2.73 1.02 56 1012.5
20260502232006 71 348 4.0 10.0 0.00 2.73 1.02 56 1012.4
20260502231521 71 326 4.0 10.0 0.00 2.73 1.02 56 1012.4
20260502231007 71 349 4.0 9.0 0.00 2.73 1.02 55 1012.4
20260502230507 71 360 2.0 9.0 0.00 2.73 1.02 55 1012.5
20260502230020 71 292 3.0 13.0 0.00 2.73 1.02 55 1012.5
20260502225506 71 321 5.0 13.0 0.00 2.73 1.02 54 1012.3
20260502225007 72 301 5.0 12.0 0.00 2.73 1.02 56 1012.4
20260502224522 72 297 3.0 12.0 0.00 2.73 1.02 56 1012.4
20260502224005 72 322 6.0 12.0 0.00 2.73 1.02 55 1012.4
20260502223504 72 342 4.0 11.0 0.00 2.74 1.02 56 1012.3
20260502223020 72 304 3.0 12.0 0.00 2.74 1.02 57 1012.3
20260502222505 72 10 3.0 13.0 0.00 2.74 1.02 56 1012.2
20260502222007 71 342 6.0 13.0 0.00 2.74 1.02 55 1012.3
20260502221519 71 296 9.0 14.0 0.00 2.74 1.02 56 1012.2
20260502221007 71 349 6.0 14.0 0.00 2.74 1.02 58 1012.2
20260502220508 70 318 4.0 11.0 0.00 2.74 1.02 59 1012.2
20260502220022 70 22 4.0 11.0 0.00 2.74 1.02 59 1012.2
20260502215508 71 336 5.0 13.0 0.00 2.74 1.02 57 1012.2
20260502215007 71 342 4.0 13.0 0.00 2.74 1.02 57 1012.1
20260502214522 71 339 4.0 11.0 0.00 2.74 1.02 57 1012.1
20260502214005 71 340 4.0 14.0 0.00 2.74 1.02 58 1012.0
20260502213507 71 327 5.0 14.0 0.00 2.74 1.02 58 1012.0
20260502213025 71 341 5.0 14.0 0.00 2.74 1.02 58 1012.0
20260502212507 71 352 7.0 14.0 0.00 2.74 1.02 56 1012.0
20260502212007 72 360 7.0 14.0 0.00 2.74 1.02 57 1011.9
20260502211522 72 28 8.0 14.0 0.00 2.74 1.02 57 1011.8
20260502211004 72 344 6.0 13.0 0.00 2.74 1.02 57 1011.8
20260502210503 72 350 5.0 13.0 0.00 2.74 1.02 58 1011.8
20260502210004 72 317 2.0 13.0 0.00 2.74 1.02 59 1011.8
20260502205503 72 339 5.0 17.0 0.00 2.74 1.02 59 1011.9
20260502205004 72 324 6.0 17.0 0.00 2.74 1.02 58 1011.9
20260502204520 71 295 7.0 17.0 0.00 2.74 1.02 59 1011.9
20260502204004 71 11 5.0 14.0 0.00 2.74 1.02 60 1012.1
20260502203504 70 335 7.0 14.0 0.00 2.74 1.02 61 1012.1
20260502203018 71 345 5.0 16.0 0.00 2.74 1.02 60 1012.1
20260502202503 72 5 5.0 16.0 0.00 2.74 1.02 61 1012.1
20260502202006 71 349 3.0 12.0 0.00 2.74 1.02 63 1012.1
20260502201519 70 323 6.0 12.0 0.00 2.74 1.02 64 1012.3
20260502201009 70 52 5.0 11.0 0.00 2.74 1.02 65 1012.5
20260502200508 69 325 3.0 11.0 0.00 2.75 1.02 64 1012.6
20260502200004 69 335 3.0 11.0 0.00 2.75 1.02 64 1012.7
20260502195505 69 360 6.0 13.0 0.00 2.75 1.02 65 1012.9
20260502195003 69 22 5.0 13.0 0.00 2.76 1.02 63 1012.8
20260502194508 69 337 6.0 14.0 0.00 2.77 1.02 64 1012.8
20260502194004 69 303 6.0 14.0 0.00 2.78 1.02 66 1012.9
20260502193503 68 47 8.0 14.0 0.00 2.79 1.02 66 1013.0
20260502193014 68 352 6.0 14.0 0.00 2.79 1.02 65 1013.1
20260502192506 68 342 5.0 14.0 0.00 2.79 1.02 66 1013.0
20260502192010 68 22 6.0 14.0 0.00 2.79 1.02 65 1013.1
20260502191521 68 352 9.0 14.0 0.00 2.79 1.02 67 1013.1
20260502191008 68 16 3.0 13.0 0.00 2.79 1.02 70 1013.0
20260502190509 67 25 6.0 12.0 0.00 2.79 1.02 71 1013.2
20260502190025 67 14 5.0 9.0 0.00 2.79 1.02 72 1013.2
20260502185507 66 32 4.0 12.0 0.00 2.79 1.02 74 1013.3
20260502185003 65 294 7.0 12.0 0.00 2.79 1.02 73 1013.3
20260502184508 65 332 8.0 12.0 0.00 2.79 1.02 74 1013.2
20260502184004 66 352 6.0 11.0 0.00 2.79 1.02 74 1013.4
20260502183504 65 352 6.0 11.0 0.00 2.79 1.02 74 1013.3
20260502183013 65 352 7.0 14.0 0.00 2.80 1.02 74 1013.3
20260502182504 65 329 6.0 14.0 0.00 2.80 1.02 75 1013.2
20260502182004 66 352 7.0 14.0 0.00 2.80 1.02 75 1013.2
20260502181518 66 26 7.0 14.0 0.00 2.80 1.02 74 1013.0
20260502181006 66 349 8.0 14.0 0.00 2.80 1.02 76 1013.0
20260502180506 66 346 6.0 12.0 0.00 2.80 1.02 76 1013.1
20260502170511 61 33 5.0 11.0 0.00 2.80 1.02 83 1013.6
20260502164011 60 48 7.0 11.0 0.00 2.80 1.02 85 1013.6
20260502163503 60 352 6.0 11.0 0.00 2.80 1.02 85 1013.6
20260502163013 60 331 5.0 16.0 0.00 2.80 1.02 87 1013.4
20260502162509 59 16 8.0 16.0 0.00 2.80 1.02 86 1013.4
20260502162001 59 343 6.0 11.0 0.00 2.80 1.02 87 1013.8
20260502161515 59 38 4.0 11.0 0.00 2.80 1.02 87 1013.8
20260502161005 59 348 6.0 11.0 0.00 2.80 1.02 88 1013.7
20260502160507 58 5 3.0 10.0 0.00 2.80 1.02 89 1013.6
20260502152004 57 47 1.0 11.0 0.00 2.80 1.02 92 1013.5
20260502151510 57 325 5.0 10.0 0.00 2.80 1.02 92 1013.5
20260502151004 57 34 3.0 9.0 0.00 2.80 1.02 93 1013.4
20260502150504 57 318 5.0 10.0 0.00 2.80 1.02 93 1013.4
20260502130504 54 69 4.0 9.0 0.02 2.80 1.02 95 1012.0
20260502123509 54 30 4.0 10.0 0.03 2.80 1.02 95 1011.7
20260502123028 54 11 5.0 10.0 0.04 2.79 1.01 95 1012.1
20260502122508 54 5 3.0 11.0 0.06 2.79 1.01 95 1012.3
20260502122009 54 56 5.0 14.0 0.10 2.78 1.00 95 1011.9
20260502121506 54 360 7.0 14.0 0.11 2.78 1.00 95 1011.6
20260502121004 54 36 6.0 11.0 0.11 2.78 1.00 95 1011.3
20260502120503 54 15 3.0 11.0 0.11 2.78 1.00 95 1011.4
20260502115504 54 61 5.0 9.0 0.12 2.78 1.00 95 1011.7
20260502115008 54 19 3.0 9.0 0.12 2.78 1.00 95 1011.8
20260502114521 55 9 3.0 9.0 0.13 2.78 1.00 95 1012.0
20260502114007 55 81 4.0 9.0 0.14 2.77 0.99 95 1012.2
20260502113508 55 20 3.0 10.0 0.15 2.77 0.99 95 1012.3
20260502113024 55 298 4.0 9.0 0.14 2.75 0.97 95 1012.3
20260502112507 55 28 2.0 10.0 0.12 2.73 0.95 95 1012.9
20260502112006 55 9 4.0 10.0 0.08 2.68 0.90 96 1012.8
20260502111532 55 286 4.0 8.0 0.07 2.67 0.89 96 1012.4
20260502111004 55 340 2.0 6.0 0.07 2.67 0.89 96 1011.3
20260502110505 55 47 1.0 10.0 0.08 2.67 0.89 96 1011.0
20260502110012 55 271 3.0 10.0 0.09 2.66 0.88 96 1010.5
20260502105505 55 30 4.0 8.0 0.15 2.66 0.88 96 1010.7
20260502105004 55 46 3.0 10.0 0.19 2.66 0.88 96 1011.0
20260502104519 55 29 4.0 10.0 0.25 2.65 0.87 95 1010.9
20260502104004 55 34 4.0 12.0 0.27 2.63 0.85 95 1010.9
20260502103504 55 45 3.0 12.0 0.29 2.62 0.84 95 1011.6
20260502103021 56 34 4.0 11.0 0.29 2.61 0.83 95 1010.8
20260502102508 56 10 4.0 11.0 0.29 2.61 0.83 96 1011.4
20260502102008 56 26 7.0 11.0 0.28 2.60 0.82 96 1011.6
20260502101525 56 298 5.0 10.0 0.29 2.60 0.82 96 1011.6
20260502101012 56 315 2.0 9.0 0.29 2.60 0.82 96 1010.8
20260502100507 56 331 4.0 10.0 0.28 2.59 0.81 96 1010.5
20260502091015 56 60 3.0 6.0 0.17 2.31 0.52 96 1009.6
20260502090508 56 87 3.0 8.0 0.22 2.31 0.52 96 1009.6
20260502071520 56 16 2.0 8.0 0.02 1.88 0.10 96 1011.3
20260502071004 56 329 4.0 9.0 0.00 1.86 0.08 96 1011.4
20260502070509 56 11 4.0 9.0 0.00 1.86 0.08 96 1011.0
20260502070024 56 64 5.0 11.0 0.00 1.86 0.08 96 1010.9
20260502065508 56 55 6.0 11.0 0.00 1.86 0.08 96 1011.0
20260502065013 56 88 5.0 10.0 0.00 1.86 0.08 96 1011.1
20260502064531 56 94 5.0 10.0 0.00 1.86 0.08 96 1011.3
20260502064016 56 46 4.0 10.0 0.00 1.86 0.08 96 1011.3
20260502063509 56 20 5.0 9.0 0.02 1.86 0.08 96 1011.3
20260502063018 56 72 3.0 8.0 0.03 1.86 0.08 96 1011.4
20260502062507 56 71 3.0 10.0 0.06 1.86 0.08 96 1011.4
20260502062005 56 96 4.0 10.0 0.06 1.86 0.08 96 1011.5
20260502061517 56 80 3.0 9.0 0.06 1.86 0.08 96 1011.4
20260502061007 56 60 4.0 9.0 0.07 1.86 0.08 96 1011.5
20260502060507 56 74 3.0 8.0 0.07 1.86 0.08 96 1011.7
20260502060024 56 34 2.0 7.0 0.08 1.86 0.08 96 1012.0
20260502055508 56 26 2.0 9.0 0.09 1.86 0.08 96 1012.0
20260502055008 56 34 4.0 11.0 0.10 1.86 0.08 96 1011.9
20260502054526 56 46 5.0 11.0 0.11 1.86 0.08 96 1011.5
20260502054006 56 18 5.0 12.0 0.14 1.86 0.08 96 1011.7
20260502053509 56 40 5.0 12.0 0.14 1.84 0.06 96 1011.6
20260502053026 56 93 9.0 12.0 0.16 1.83 0.05 96 1011.9
20260502052510 56 61 2.0 5.0 0.15 1.80 0.02 96 1013.1
20260502052006 56 116 1.0 5.0 0.18 1.80 0.02 96 1013.3
20260502051516 56 337 3.0 5.0 0.21 1.80 0.02 96 1013.4
20260502051006 56 309 0.0 3.0 0.25 1.79 0.01 96 1013.5
20260502050508 56 11 1.0 3.0 0.31 1.79 0.01 96 1013.3
20260502050026 56 24 0.0 3.0 0.41 1.78 0.00 96 1013.3
20260502045506 56 54 1.0 3.0 0.48 1.77 1.77 96 1013.1
20260502045013 56 46 1.0 3.0 0.61 1.76 1.76 96 1013.0
20260502044525 56 76 2.0 3.0 0.73 1.75 1.75 96 1013.3
20260502044011 56 5 1.0 2.0 0.77 1.72 1.72 96 1013.6
20260502043511 56 32 0.0 5.0 0.79 1.70 1.70 96 1013.9
20260502043026 56 40 1.0 6.0 0.82 1.67 1.67 96 1013.8
20260502042511 56 46 2.0 5.0 0.83 1.65 1.65 96 1013.6
20260502042011 56 292 2.0 7.0 0.84 1.62 1.62 96 1013.9
20260502041529 56 19 1.0 10.0 0.88 1.59 1.59 96 1013.8
20260502041009 56 35 2.0 14.0 0.88 1.54 1.54 96 1013.5
20260502040503 56 322 6.0 14.0 0.85 1.48 1.48 96 1013.4
20260502040019 56 295 4.0 10.0 0.81 1.37 1.37 96 1014.2
20260502035506 56 276 5.0 10.0 0.75 1.29 1.29 96 1013.4
20260502035006 56 315 4.0 10.0 0.64 1.15 1.15 96 1013.7
20260502034525 56 286 3.0 8.0 0.52 1.02 1.02 96 1013.4
20260502034007 56 9 3.0 12.0 0.46 0.95 0.95 95 1012.5
20260502033508 56 36 7.0 12.0 0.44 0.91 0.91 95 1012.1
20260502033012 56 74 4.0 14.0 0.41 0.85 0.85 95 1012.1
20260502032504 56 53 6.0 14.0 0.47 0.82 0.82 95 1011.7
20260502032004 57 80 5.0 9.0 0.48 0.78 0.78 95 1012.1
20260502031511 57 43 3.0 10.0 0.45 0.71 0.71 95 1012.4
20260502031004 57 17 5.0 10.0 0.42 0.66 0.66 95 1012.0
20260502030505 56 30 6.0 10.0 0.40 0.63 0.63 95 1011.8
20260502030022 57 51 2.0 5.0 0.34 0.56 0.56 95 1012.6
20260502025507 56 34 1.0 6.0 0.32 0.54 0.54 95 1012.2
20260502025006 57 28 3.0 7.0 0.30 0.51 0.51 95 1012.3
20260502024522 56 42 1.0 15.0 0.29 0.49 0.49 95 1012.0
20260502024006 56 23 4.0 15.0 0.30 0.49 0.49 95 1011.7
20260502023510 56 57 7.0 15.0 0.28 0.47 0.47 95 1011.6
20260502023032 56 75 8.0 14.0 0.25 0.44 0.44 94 1011.7
20260502022509 56 19 5.0 8.0 0.16 0.35 0.35 94 1012.2
20260502022006 57 39 2.0 11.0 0.11 0.30 0.30 94 1012.7
20260502021507 57 18 5.0 13.0 0.08 0.26 0.26 94 1012.5
20260502021004 57 34 6.0 13.0 0.06 0.24 0.24 93 1012.4
20260502020503 57 39 5.0 17.0 0.05 0.23 0.23 93 1012.7
20260502020019 58 20 3.0 17.0 0.05 0.22 0.22 93 1012.7
20260502015504 58 344 8.0 13.0 0.06 0.22 0.22 93 1012.4
20260502015006 59 352 3.0 10.0 0.06 0.21 0.21 94 1012.4
20260502014519 59 36 1.0 13.0 0.07 0.20 0.20 94 1012.4
20260502014008 59 16 6.0 13.0 0.08 0.19 0.19 94 1012.2
20260502013506 59 37 5.0 13.0 0.09 0.19 0.19 94 1012.0
20260502013024 60 62 5.0 13.0 0.11 0.19 0.19 94 1012.0
20260502012507 60 5 6.0 13.0 0.11 0.19 0.19 95 1011.8
20260502012009 60 352 4.0 9.0 0.12 0.19 0.19 95 1011.8
20260502011525 60 74 5.0 10.0 0.11 0.18 0.18 94 1011.9
20260502011003 60 60 5.0 10.0 0.11 0.18 0.18 94 1011.9
20260502010507 60 31 5.0 10.0 0.11 0.18 0.18 94 1012.0
20260502010013 61 46 4.0 8.0 0.10 0.17 0.17 95 1011.9
20260502005504 61 348 3.0 7.0 0.09 0.16 0.16 95 1011.9
20260502005006 61 96 2.0 5.0 0.08 0.15 0.15 94 1011.8
20260502004520 61 53 3.0 5.0 0.06 0.13 0.13 94 1012.0
20260502004007 61 294 3.0 9.0 0.04 0.11 0.11 94 1012.3
20260502003505 61 43 2.0 9.0 0.03 0.10 0.10 94 1012.0
20260502003023 61 107 1.0 5.0 0.01 0.08 0.08 94 1011.8
20260502002507 61 22 2.0 5.0 0.01 0.08 0.08 94 1011.9
20260502002009 61 31 3.0 5.0 0.00 0.07 0.07 94 1011.7
20260502001527 61 54 3.0 9.0 0.00 0.07 0.07 94 1011.5
20260502001008 61 59 4.0 9.0 0.00 0.07 0.07 94 1011.4
20260502000508 61 86 2.0 6.0 0.00 0.07 0.07 94 1011.3
20260502000017 61 21 3.0 9.0 0.00 0.07 0.07 94 1011.2
20260501235508 61 45 6.0 10.0 0.00 0.07 0.07 94 1011.0
20260501235005 61 17 5.0 9.0 0.00 0.07 0.07 94 1011.1